Flag Weather past 2 weeks in Halle, Saxony-Anhalt, Germany

Now
30 °F

Clear.


Feels Like: 21 °F
Forecast: 28 / 37 °F
Wind: 12 mph from East

Location: Leipzig-Schkeuditz

Current Time: Nov 28, 2014 at 12:43:18 AM

Latest Report: Nov 28, 2014 at 12:20 AM


Visibility: 6 mi

Pressure: 29.95 "Hg

Humidity: 100%

Dew point: 30 °F

Location of HalleLocation

Historic Weather in Halle — Graph

°F

Halle temperature yesterday

Maximum temperature yesterday: 41 °F (at 11:50 AM)
Minimum temperature yesterday: 27 °F (at 6:20 AM)
Average temperature yesterday: 34 °F

Past Weeks' High & Low Weather Summary

 TemperatureHumidityPressure
High57 °F (Nov 14, 12:20 PM)100% (Nov 12, 11:20 PM)30.36 "Hg (Nov 12, 11:20 PM)
Low27 °F (Nov 27, 6:20 AM)63% (Nov 23, 1:50 PM)29.53 "Hg (Nov 16, 4:20 AM)
Average43 °F94%30.02 "Hg
* Reported Nov 12 11:20 PM — Nov 27 11:20 PM, Halle, Weather by CustomWeather, © 2014

Note: Actual official high and low records may vary slightly from our data, if they occured in-between our weather recording intervals... More about our weather records

Advertising

Halle weather history for previous 24 hours

 ConditionsComfort  
Time TempWeatherWind HumidityBarometerVisibility
11:20 PM
Nov 27
32 °FClear.10 mph93%29.95 "Hg10 mi
10:50 PM32 °FPassing clouds.12 mph100%29.95 "HgN/A
10:20 PM32 °FPassing clouds.10 mph93%29.95 "HgN/A
9:50 PM32 °FPassing clouds.10 mph93%29.95 "HgN/A
9:20 PM32 °FPassing clouds.9 mph93%29.95 "HgN/A
8:50 PM32 °FPassing clouds.10 mph93%29.95 "HgN/A
8:20 PM32 °FClear.10 mph93%29.92 "Hg10 mi
7:50 PM34 °FClear.10 mph93%29.92 "Hg10 mi
7:20 PM32 °FClear.10 mph93%29.92 "Hg10 mi
6:50 PM34 °FClear.10 mph93%29.92 "Hg10 mi
6:20 PM34 °FPassing clouds.10 mph93%29.92 "HgN/A
5:50 PM36 °FPassing clouds.9 mph87%29.92 "HgN/A
5:20 PM37 °FPassing clouds.10 mph87%29.92 "HgN/A
4:50 PM37 °FPassing clouds.9 mph87%29.92 "HgN/A
4:20 PM37 °FPassing clouds.10 mph87%29.92 "Hg6 mi
3:50 PM37 °FBroken clouds.9 mph87%29.92 "Hg6 mi
3:20 PM37 °FPartly sunny.9 mph87%29.92 "Hg6 mi
2:50 PM39 °FBroken clouds.10 mph81%29.92 "Hg6 mi
2:20 PM41 °FBroken clouds.10 mph76%29.92 "HgN/A
1:50 PM41 °FScattered clouds.12 mph76%29.92 "HgN/A
1:20 PM41 °FSunny.10 mph76%29.92 "Hg10 mi
12:50 PM41 °FSunny.12 mph76%29.92 "Hg10 mi
12:20 PM41 °FSunny.10 mph76%29.92 "Hg10 mi
11:50 AM41 °FSunny.12 mph76%29.95 "Hg10 mi
11:20 AM39 °FSunny.9 mph81%29.95 "Hg10 mi
10:50 AM37 °FSunny.8 mph87%29.95 "Hg10 mi
10:20 AM36 °FClear.7 mph87%29.95 "Hg6 mi
9:20 AM32 °FClear.8 mph100%29.95 "Hg5 mi
8:50 AM30 °FClear.7 mph100%29.98 "Hg5 mi
8:20 AM28 °FClear.8 mph100%29.98 "Hg5 mi
7:50 AM28 °FClear.7 mph100%29.98 "Hg5 mi
7:20 AM28 °FClear.7 mph100%29.98 "Hg10 mi
6:50 AM28 °FClear.8 mph100%29.98 "Hg10 mi
6:20 AM27 °FClear.9 mph100%29.98 "Hg10 mi
5:50 AM28 °FClear.10 mph100%29.98 "Hg10 mi
5:20 AM28 °FClear.8 mph100%29.98 "Hg10 mi
4:50 AM30 °FClear.10 mph100%29.98 "Hg10 mi
4:20 AM30 °FClear.9 mph100%29.98 "Hg10 mi
3:50 AM32 °FClear.9 mph100%29.98 "Hg10 mi
3:20 AM30 °FClear.9 mph100%29.98 "Hg10 mi
2:50 AM30 °FClear.9 mph100%30.01 "Hg10 mi
2:20 AM30 °FClear.8 mph100%30.01 "Hg10 mi
1:50 AM30 °FClear.8 mph100%30.01 "Hg10 mi
1:20 AM32 °FClear.8 mph93%30.04 "Hg10 mi
12:50 AM32 °FClear.8 mph100%30.04 "Hg10 mi
12:20 AM34 °FClear.7 mph93%30.04 "Hg10 mi
Weather by CustomWeather, © 2014

See weather overviewHow to use our weather pages